Regional Weather Roundup
Issued by NWS Jackson, KY

Home | Current Version | Previous Version | Graphics & Text | Print | Product List | Glossary On
Versions: 1 2 3 4 5 6 7 8 9 10 11 12 13 14 15 16 17 18 19 20 21 22 23 24 25 26 27 28 29 30 31 32 33 34 35 36 37 38 39 40 41 42 43 44 45 46 47 48 49 50
000
ASUS43 KJKL 281210
RWRJKL

EAST KENTUCKY HOURLY WEATHER ROUNDUP
NATIONAL WEATHER SERVICE JACKSON KY
800 AM EDT THU JUL 28 2016

NOTE: "FAIR" INDICATES FEW OR NO CLOUDS BELOW 12,000 FEET WITH
NO SIGNIFICANT WEATHER AND/OR OBSTRUCTIONS TO VISIBILITY.

* THESE REPORTS ARE NOT UNDER NWS QUALITY CONTROL AND MAY NOT
  REPORT WEATHER SUCH AS PRECIPITATION AND FOG.

KYZ079-080-083-085-087-088-110-112-115-119-120-281300
...EASTERN KENTUCKY...

CITY           SKY/WX    TMP DP  RH WIND       PRES   REMARKS
JACKSON        CLOUDY    70  68  93 CALM      29.98S
6HR MIN TEMP:  69; 6HR MAX TEMP:  71; 6HR PCP:  0.02;

LONDON         PTSUNNY   73  68  84 CALM      29.96S
6HR MIN TEMP:  70; 6HR MAX TEMP:  72;

SOMERSET*      CLOUDY    72  72 100 CALM      29.96S
MONTICELLO*    MOSUNNY  N/A N/A N/A E6        29.96S
WILLIAMSBURG*  PTSUNNY   72  72 100 SE5       29.97S
MIDDLESBORO*   CLOUDY    71  71  99 CALM      30.00S
6HR MIN TEMP:  70; 6HR MAX TEMP:  72;

HARLAN APT*    CLOUDY    68  66  94 CALM      30.01F
PIKE CO APT*   PTSUNNY   71  71 100 S5        29.99R
BIG SANDY APT* CLOUDY    72  72  99 N3        29.99R
6HR MIN TEMP:  72; 6HR MAX TEMP:  75;

MOREHEAD APT*  LGT RAIN  72  70  94 CALM      29.97R
ASHLAND*       CLOUDY    73  72  94 CALM      29.93R
$$

KYZ035-036-041-042-044-050-067-078-099-281300
...CENTRAL KENTUCKY...

CITY           SKY/WX    TMP DP  RH WIND       PRES   REMARKS
MT STERLING*   RAIN      72  72 100 CALM      29.97R
FLEMING/MASON* LGT RAIN  70  70  98 CALM      29.97S
DANVILLE*      LGT RAIN  72  72 100 CALM      29.94S
LEXINGTON      LGT RAIN  72  70  93 SE3       29.94S
6HR MIN TEMP:  72; 6HR MAX TEMP:  77; 6HR PCP:  0.59;

FRANKFORT      LGT RAIN  72  69  90 CALM      29.94R
6HR MIN TEMP:  71; 6HR MAX TEMP:  75; 6HR PCP:  0.94;

LOUISVILLE     LGT RAIN  76  72  87 SW7       29.92S
6HR MIN TEMP:  75; 6HR MAX TEMP:  78; 6HR PCP:  0.39;

LEBANON*       HVY RAIN  72  72 100 NW3       29.95R
GLASGOW*       CLOUDY    72  72 100 W6        29.95R THUNDER
BOWLING GREEN  RAIN      72  70  93 W5        29.94R FOG
6HR MIN TEMP:  73; 6HR MAX TEMP:  76; 6HR PCP:  1.24;

$$

KYZ091>093-OHZ055-061-077-WVZ005-015-034-035-042-281300
...SOUTHERN OHIO/WEST VIRGINIA...

CITY           SKY/WX    TMP DP  RH WIND       PRES   REMARKS
COVINGTON      RAIN      72  72 100 SW3       29.95S FOG
COLUMBUS       LGT RAIN  75  72  90 SW7       29.92R
DAYTON         CLOUDY    74  68  81 SW7       29.95R
WILMINGTON     LGT RAIN  70  69  97 SW7       29.94S FOG
HUNTINGTON     TSTM      72  70  93 S3        29.95S FOG
CHARLESTON     PTSUNNY   74  72  93 CALM      29.96R
PINEVILLE*     PTSUNNY   71  68  90 MISG      30.06S
BECKLEY          N/A     69  68  96 S3        30.05S
BLUEFIELD        N/A     67  64  90 W5        30.08S
LOGAN CO APT*  PTSUNNY   72  70  94 CALM      29.99R
$$

VAZ002-007-008-TNZ017-027-036-066-071-281300
...SOUTHWEST VIRGINIA/EAST TENNESSEE...

CITY           SKY/WX    TMP DP  RH WIND       PRES   REMARKS
JONESVILLE*    CLOUDY    72  70  94 CALM      30.03F
ABINGDON*      CLOUDY    73  73 100 CALM      30.06S FOG
BRISTOL        CLOUDY    72  70  93 CALM      30.03S
MORRISTOWN*    MOSUNNY   77  70  78 SW6       30.00S
SEVIERVILLE*   MOSUNNY   75  68  78 E3        29.98F
KNOXVILLE      PTSUNNY   78  69  73 SW8       29.98S
OAK RIDGE      CLOUDY    78  69  73 VRB5      30.00R
CROSSVILLE     CLOUDY    73  69  87 VRB6      30.03R
NASHVILLE      CLOUDY    77  73  87 S6        29.94R
$$

...KEY TO REMARKS...
VSB - VISIBILITY IN MILES
WCI - WIND CHILL INDEX
HX  - HEAT INDEX

$$



USA.gov is the U.S. government's official web portal to all federal, state and local government web resources and services.